Home > Time Zones > World Clock > Weather > Ghana > Accra > Past weeks

Flag Weather past 2 weeks in Accra, Ghana

Now
84 °F

Passing clouds.


Feels Like: 92 °F
Forecast: N/A
Wind: 10 mph from South

Location: Accra Airport

Current Time: Nov 26, 2014 at 6:37:16 PM

Latest Report: Nov 26, 2014 at 4:51 PM


Visibility: N/A

Pressure: 29.83 "Hg

Humidity: 74%

Dew point: 75 °F

Location of AccraLocation

Historic Weather in Accra — Graph

°F

Accra temperature yesterday

Maximum temperature yesterday: 86 °F (at 11:00 AM)
Minimum temperature yesterday: 75 °F (at 4:52 AM)
Average temperature yesterday: 81 °F

Past Weeks' High & Low Weather Summary

 TemperatureHumidityPressure
High90 °F (Nov 16, 11:46 AM)94% (Nov 13, 5:48 AM)29.95 "Hg (Nov 13, 5:48 AM)
Low75 °F (Nov 11, 10:00 PM)55% (Nov 22, 12:00 PM)29.56 "Hg (Nov 17, 4:52 PM)
Average82 °F82%29.86 "Hg
* Reported Nov 11 8:00 PM — Nov 26 4:51 PM, Accra, Weather by CustomWeather, © 2014

Note: Actual official high and low records may vary slightly from our data, if they occured in-between our weather recording intervals... More about our weather records

Advertising

Accra weather history for previous 24 hours

 ConditionsComfort  
Time TempWeatherWind HumidityBarometerVisibility
4:51 PM
Nov 26
84 °FPassing clouds.10 mph74%29.83 "HgN/A
4:00 PM84 °FPassing clouds.15 mph79%29.80 "HgN/A
1:48 PM86 °FSunny.12 mph75%29.80 "Hg10 mi
12:45 PM88 °FPassing clouds.10 mph70%29.83 "HgN/A
12:00 PM88 °FPartly sunny.10 mph70%29.86 "HgN/A
10:48 AM86 °FScattered clouds.8 mph70%29.89 "HgN/A
8:00 AM81 °FPassing clouds.9 mph84%29.89 "HgN/A
7:47 AM79 °FPassing clouds.9 mph89%29.89 "HgN/A
7:00 AM77 °FSunny.8 mph94%29.89 "Hg10 mi
6:00 AM77 °FSunny.7 mph94%29.86 "Hg10 mi
5:00 AM77 °FClear.7 mph94%29.86 "Hg10 mi
4:00 AM77 °FClear.7 mph94%29.86 "Hg10 mi
3:00 AM77 °FClear.8 mph94%29.86 "Hg10 mi
2:00 AM79 °FPassing clouds.7 mph89%29.86 "HgN/A
1:00 AM79 °FPartly cloudy.8 mph89%29.89 "HgN/A
12:00 AM81 °FPassing clouds.9 mph89%29.89 "HgN/A
11:00 PM
Nov 25
81 °FPassing clouds.9 mph89%29.89 "HgN/A
10:00 PM81 °FPassing clouds.8 mph89%29.92 "HgN/A
9:00 PM81 °FPassing clouds.8 mph89%29.92 "HgN/A
8:00 PM81 °FPassing clouds.7 mph89%29.89 "HgN/A
7:00 PM81 °FPassing clouds.10 mph89%29.89 "HgN/A
6:00 PM82 °FPassing clouds.14 mph79%29.86 "HgN/A
Weather by CustomWeather, © 2014

See weather overviewHow to use our weather pages